Weather History for K2J9 - January, 2014

Change the Weather History Date:

Tuesday, January 14, 2014

  Actual Average (KTLH) Record (KTLH)
Temperature  
Mean Temperature 52 °F 51 °F  
Max Temperature 66 °F 63 °F 83 °F (1932)
Min Temperature 39 °F 39 °F 18 °F (1973)
Degree Days  
Heating Degree Days 12    
Month to date heating degree days  
Since 1 July heating degree days  
Cooling Degree Days 0    
Month to date cooling degree days  
Year to date cooling degree days  
Growing Degree Days 2 (Base 50)    
Moisture  
Dew Point 51 °F    
Average Humidity 84    
Maximum Humidity 100    
Minimum Humidity 40    
Precipitation  
Precipitation 0.27 in 0.14 in 2.16 in (1977)
Month to date precipitation 1.79  
Year to date precipitation 1.79  
Sea Level Pressure  
Sea Level Pressure 29.98 in    
Wind  
Wind Speed 7 mph (West)    
Max Wind Speed 15 mph    
Max Gust Speed 21 mph    
Visibility 9 miles    
Events      
T = Trace of Precipitation, MM = Missing Value Source: NWS Daily Summary

Daily Weather History Graph

Daily Weather History Graph

Search for Another Location

Airport or City:

Trip Planner

Search our weather history database for the weather conditions in past years. The results will help you decide how hot, cold, wet, or windy it might be!

Date:

Astronomy

Jan. 14, 2014 Rise Set
Actual Time 7:36 AM EST 5:58 PM EST
Civil Twilight 7:10 AM EST 6:24 PM EST
Nautical Twilight 6:40 AM EST 6:54 PM EST
Astronomical Twilight 6:11 AM EST 7:23 PM EST
Moon 5:01 PM EST (1/14) 6:11 AM EST (1/14)
Length of Visible Light 11h 14m
Length of Day
10h 22m
Waxing Gibbous, 98% of the Moon is Illuminated
Jan 14
Waxing Gibbous
Jan 15
Full
Jan 24
Last Quarter
Jan 30
New
Feb 6
First Quarter

Hourly Weather History & Observations

Time (EST) Temp. Windchill Dew Point Humidity Pressure Visibility Wind Dir Wind Speed Gust Speed Precip Events Conditions
12:15 AM 55.4 °F - 55.4 °F 100% 29.93 in 6.0 mi SSE 5.8 mph - 0.01 in   Overcast
12:35 AM 57.2 °F - 57.2 °F 100% 29.92 in 5.0 mi SSE 10.4 mph - 0.02 in   Overcast
12:55 AM 57.2 °F - 57.2 °F 100% 29.92 in 7.0 mi South 8.1 mph - 0.03 in   Overcast
1:15 AM 57.2 °F - 57.2 °F 100% 29.92 in 6.0 mi South 6.9 mph - 0.01 in   Overcast
1:35 AM 57.2 °F - 57.2 °F 100% 29.92 in 5.0 mi South 6.9 mph - 0.04 in   Overcast
1:55 AM 57.2 °F - 57.2 °F 100% 29.90 in 5.0 mi South 5.8 mph - 0.06 in   Overcast
2:15 AM 57.2 °F - 57.2 °F 100% 29.88 in 7.0 mi SSE 9.2 mph - 0.01 in   Overcast
2:55 AM 59.0 °F - 59.0 °F 100% 29.88 in 10.0 mi South 3.5 mph - 0.02 in   Overcast
3:15 AM 59.0 °F - 59.0 °F 100% 29.87 in 10.0 mi South 5.8 mph - N/A   Overcast
3:35 AM 59.0 °F - 59.0 °F 100% 29.87 in 10.0 mi South 5.8 mph - N/A   Overcast
3:55 AM 59.0 °F - 59.0 °F 100% 29.87 in 10.0 mi South 4.6 mph - N/A   Overcast
4:15 AM 59.0 °F - 59.0 °F 100% 29.87 in 5.0 mi South 5.8 mph - N/A   Overcast
4:35 AM 59.0 °F - 59.0 °F 100% 29.87 in 3.0 mi South 4.6 mph - 0.01 in   Overcast
4:55 AM 59.0 °F - 59.0 °F 100% 29.88 in 9.0 mi South 6.9 mph - 0.01 in   Overcast
5:15 AM 59.0 °F - 59.0 °F 100% 29.89 in 6.0 mi South 8.1 mph - N/A   Overcast
5:35 AM 59.0 °F - 59.0 °F 100% 29.88 in 10.0 mi South 6.9 mph - N/A   Overcast
5:55 AM 59.0 °F - 59.0 °F 100% 29.87 in 8.0 mi South 5.8 mph - N/A   Overcast
6:15 AM 60.8 °F - 60.8 °F 100% 29.88 in 5.0 mi South 5.8 mph - 0.02 in   Overcast
6:35 AM 60.8 °F - 60.8 °F 100% 29.90 in 1.5 mi West 10.4 mph - 0.15 in   Overcast
6:55 AM 60.8 °F - 60.8 °F 100% 29.90 in 10.0 mi West 10.4 mph - 0.15 in   Overcast
7:15 AM 59.0 °F - 59.0 °F 100% 29.92 in 10.0 mi West 13.8 mph 20.7 mph N/A   Overcast
7:35 AM 59.0 °F - 57.2 °F 94% 29.93 in 9.0 mi WNW 11.5 mph - N/A   Overcast
7:55 AM 59.0 °F - 57.2 °F 94% 29.94 in 8.0 mi WNW 10.4 mph - N/A   Overcast
8:15 AM 57.2 °F - 57.2 °F 100% 29.95 in 9.0 mi WNW 6.9 mph - N/A   Mostly Cloudy
8:35 AM 59.0 °F - 57.2 °F 94% 29.97 in 9.0 mi WNW 9.2 mph - N/A   Mostly Cloudy
8:55 AM 59.0 °F - 57.2 °F 94% 29.98 in 9.0 mi WNW 8.1 mph 16.1 mph N/A   Overcast
9:15 AM 59.0 °F - 55.4 °F 88% 29.99 in 10.0 mi WNW 13.8 mph 18.4 mph N/A   Overcast
9:35 AM 59.0 °F - 55.4 °F 88% 30.00 in 10.0 mi WNW 4.6 mph - N/A   Mostly Cloudy
9:55 AM 60.8 °F - 53.6 °F 77% 30.01 in 10.0 mi WNW 5.8 mph - N/A   Scattered Clouds
10:15 AM 60.8 °F - 53.6 °F 77% 30.02 in 10.0 mi NW 15.0 mph 19.6 mph N/A   Partly Cloudy
10:35 AM 60.8 °F - 51.8 °F 72% 30.03 in 10.0 mi NNW 13.8 mph 17.3 mph N/A   Partly Cloudy
10:55 AM 60.8 °F - 50.0 °F 68% 30.04 in 10.0 mi North 6.9 mph 20.7 mph N/A   Partly Cloudy
11:15 AM 62.6 °F - 48.2 °F 59% 30.03 in 10.0 mi NNW 11.5 mph 17.3 mph N/A   Clear
11:35 AM 62.6 °F - 48.2 °F 59% 30.03 in 10.0 mi NW 10.4 mph 18.4 mph N/A   Clear
11:55 AM 62.6 °F - 46.4 °F 55% 30.02 in 10.0 mi NNW 9.2 mph 17.3 mph N/A   Partly Cloudy
12:15 PM 62.6 °F - 46.4 °F 55% 30.02 in 10.0 mi NNW 9.2 mph - N/A   Partly Cloudy
12:35 PM 62.6 °F - 46.4 °F 55% 30.01 in 10.0 mi NW 10.4 mph - N/A   Clear
1:55 PM 64.4 °F - 44.6 °F 49% 29.99 in 10.0 mi NNW 5.8 mph - N/A   Clear
2:15 PM 64.4 °F - 41.0 °F 42% 29.99 in 10.0 mi North 3.5 mph - N/A   Clear
2:35 PM 66.2 °F - 42.8 °F 43% 29.98 in 10.0 mi WNW 9.2 mph - N/A   Clear
2:55 PM 66.2 °F - 41.0 °F 40% 29.99 in 10.0 mi NW 9.2 mph - N/A   Clear
3:15 PM 66.2 °F - 41.0 °F 40% 29.99 in 10.0 mi North 5.8 mph - N/A   Clear
3:35 PM 66.2 °F - 41.0 °F 40% 29.99 in 10.0 mi WNW 5.8 mph - N/A   Clear
4:15 PM 64.4 °F - 41.0 °F 42% 30.00 in 10.0 mi North 4.6 mph - N/A   Clear
6:15 PM 55.4 °F - 44.6 °F 67% 30.02 in 10.0 mi Calm Calm - N/A   Clear
6:35 PM 51.8 °F - 44.6 °F 76% 30.03 in 10.0 mi Calm Calm - N/A   Clear
6:55 PM 50.0 °F - 44.6 °F 82% 30.03 in 10.0 mi Calm Calm - N/A   Clear
7:15 PM 48.2 °F - 44.6 °F 87% 30.04 in 10.0 mi Calm Calm - N/A   Clear
7:35 PM 48.2 °F - 44.6 °F 87% 30.05 in 10.0 mi Calm Calm - N/A   Clear
7:55 PM 46.4 °F - 42.8 °F 87% 30.05 in 10.0 mi Calm Calm - N/A   Clear
8:15 PM 46.4 °F - 42.8 °F 87% 30.06 in 10.0 mi Calm Calm - N/A   Clear
8:35 PM 46.4 °F - 42.8 °F 87% 30.07 in 10.0 mi Calm Calm - N/A   Clear
8:55 PM 44.6 °F 40.7 °F 41.0 °F 87% 30.07 in 10.0 mi WNW 6.9 mph - N/A   Clear
9:35 PM 44.6 °F - 41.0 °F 87% 30.08 in 10.0 mi Calm Calm - N/A   Clear
9:55 PM 42.8 °F - 41.0 °F 93% 30.08 in 10.0 mi Calm Calm - N/A   Clear
10:35 PM 41.0 °F - 41.0 °F 100% 30.08 in 10.0 mi Calm Calm - N/A   Clear
10:55 PM 41.0 °F - 39.2 °F 93% 30.08 in 10.0 mi Calm Calm - N/A   Clear
11:15 PM 41.0 °F - 39.2 °F 93% 30.07 in 10.0 mi Calm Calm - N/A   Clear
11:35 PM 39.2 °F - 39.2 °F 100% 30.07 in 10.0 mi Calm Calm - N/A   Clear
11:55 PM 39.2 °F - 37.4 °F 93% 30.06 in 10.0 mi Calm Calm - N/A   Clear